NOZ1865 LIBD-ENGM

Flight info

Callsign NOZ1865
Flight time 2h 45m
Altitude 38000
Route PISIP DCT VIE DCT SIMBA DCT ARMUT DCT MAKEL DCT SABAK L997 REGMA DCT LUNIP
Aircraft B738/M-SDE2E3GHIJ1LRWXY/LB1

Departure

Time 2026-05-05 22:50
Airport Bari Karol Wojtyła International Airport (LIBD)

Arrival

Time 2026-05-06 01:35
Airport Oslo-Gardermoen International Airport (ENGM)
Time Latitude Longitude Altitude Speed Heading
2026-05-05 22:40 41.13734 16.76920 133 ft 0 kts 194°
2026-05-05 22:44 41.13733 16.76920 133 ft 1 kts 196°
2026-05-05 22:44 41.13729 16.76904 134 ft 3 kts 274°
2026-05-05 22:45 41.13763 16.76848 132 ft 12 kts 295°
2026-05-05 22:45 41.13824 16.76765 129 ft 13 kts 332°
2026-05-05 22:45 41.13837 16.76669 130 ft 12 kts 250°
2026-05-05 22:45 41.13807 16.76564 133 ft 14 kts 249°
2026-05-05 22:46 41.13769 16.76427 133 ft 18 kts 249°
2026-05-05 22:46 41.13722 16.76262 134 ft 20 kts 249°
2026-05-05 22:46 41.13671 16.76084 135 ft 22 kts 249°
2026-05-05 22:46 41.13617 16.75890 136 ft 22 kts 249°
2026-05-05 22:47 41.13562 16.75698 137 ft 23 kts 249°
2026-05-05 22:47 41.13505 16.75498 141 ft 23 kts 249°
2026-05-05 22:47 41.13447 16.75295 141 ft 25 kts 249°
2026-05-05 22:47 41.13389 16.75088 147 ft 23 kts 250°
2026-05-05 22:48 41.13353 16.74962 147 ft 10 kts 247°
2026-05-05 22:48 41.13348 16.74874 147 ft 10 kts 295°
2026-05-05 22:48 41.13383 16.74795 145 ft 10 kts 301°
2026-05-05 22:48 41.13436 16.74731 141 ft 10 kts 341°
2026-05-05 22:49 41.13475 16.74731 139 ft 5 kts 43°
2026-05-05 22:49 41.13482 16.74750 139 ft 0 kts 70°
2026-05-05 22:49 41.13493 16.74788 138 ft 18 kts 69°
2026-05-05 22:49 41.13620 16.75239 138 ft 87 kts 69°
2026-05-05 22:50 41.13907 16.76252 125 ft 145 kts 70°
2026-05-05 22:50 41.14281 16.77613 510 ft 161 kts 70°
2026-05-05 22:50 41.14676 16.79068 1015 ft 174 kts 71°
2026-05-05 22:50 41.15144 16.80675 1338 ft 202 kts 70°
2026-05-05 22:51 41.15685 16.82519 1574 ft 227 kts 71°
2026-05-05 22:51 41.16282 16.84573 1799 ft 248 kts 70°
2026-05-05 22:51 41.16915 16.86757 2337 ft 258 kts 70°
2026-05-05 22:51 41.17554 16.88964 3222 ft 254 kts 70°
2026-05-05 22:52 41.18421 16.91004 4062 ft 258 kts 46°
2026-05-05 22:52 41.19959 16.92266 4889 ft 269 kts 15°
2026-05-05 22:52 41.21842 16.92335 5701 ft 276 kts 346°
2026-05-05 22:52 41.23578 16.91288 6648 ft 276 kts 325°
2026-05-05 22:53 41.25161 16.89845 7585 ft 278 kts 323°
2026-05-05 22:53 41.26750 16.88338 8500 ft 282 kts 323°
2026-05-05 22:53 41.28356 16.86806 9427 ft 286 kts 322°
2026-05-05 22:53 41.29984 16.85259 10321 ft 290 kts 323°
2026-05-05 22:54 41.31682 16.83649 10709 ft 313 kts 323°
2026-05-05 22:54 41.33475 16.81796 10908 ft 339 kts 317°
2026-05-05 22:54 41.35223 16.79579 11386 ft 353 kts 314°
2026-05-05 22:54 41.36960 16.77239 12143 ft 357 kts 313°
2026-05-05 22:55 41.38706 16.74866 13003 ft 359 kts 313°
2026-05-05 22:55 41.40464 16.72491 13896 ft 361 kts 313°
2026-05-05 22:55 41.42242 16.70110 14640 ft 364 kts 313°
2026-05-05 22:55 41.44041 16.67717 15375 ft 367 kts 313°
2026-05-05 22:56 41.45861 16.65307 16106 ft 370 kts 313°
2026-05-05 22:56 41.47699 16.62880 16840 ft 373 kts 313°
2026-05-05 22:56 41.49550 16.60439 17558 ft 376 kts 313°
2026-05-05 22:56 41.51419 16.57974 18261 ft 379 kts 313°
2026-05-05 22:57 41.53302 16.55490 18877 ft 382 kts 313°
2026-05-05 22:57 41.55201 16.52982 19467 ft 386 kts 313°
2026-05-05 22:57 41.57116 16.50453 20047 ft 389 kts 313°
2026-05-05 22:57 41.59047 16.47898 20621 ft 392 kts 313°
2026-05-05 22:58 41.60994 16.45321 21183 ft 396 kts 313°
2026-05-05 22:58 41.62956 16.42722 21731 ft 399 kts 313°
2026-05-05 22:58 41.64932 16.40101 22268 ft 402 kts 313°
2026-05-05 22:58 41.66929 16.37450 22798 ft 406 kts 313°
2026-05-05 22:59 41.68941 16.34778 23318 ft 409 kts 313°
2026-05-05 22:59 41.70939 16.32121 23759 ft 413 kts 313°
2026-05-05 22:59 41.73009 16.29365 24203 ft 415 kts 313°
2026-05-05 22:59 41.75028 16.26675 24691 ft 415 kts 313°
2026-05-05 23:00 41.79128 16.21206 25660 ft 417 kts 312°
2026-05-05 23:00 41.81186 16.18455 26080 ft 419 kts 312°
2026-05-05 23:00 41.83254 16.15689 26482 ft 421 kts 312°
2026-05-05 23:01 41.85329 16.12912 26942 ft 422 kts 312°
2026-05-05 23:01 41.87405 16.10131 27361 ft 423 kts 312°
2026-05-05 23:01 41.89568 16.07428 27781 ft 427 kts 319°
2026-05-05 23:01 41.92035 16.05186 28251 ft 430 kts 326°
2026-05-05 23:02 41.94720 16.03366 28654 ft 436 kts 334°
2026-05-05 23:02 41.97600 16.02027 29007 ft 440 kts 337°
2026-05-05 23:02 42.00528 16.00784 29338 ft 442 kts 338°
2026-05-05 23:02 42.03476 15.99560 29682 ft 444 kts 338°
2026-05-05 23:03 42.06432 15.98332 30027 ft 445 kts 338°
2026-05-05 23:03 42.09390 15.97093 30425 ft 444 kts 338°
2026-05-05 23:03 42.12326 15.95852 30874 ft 441 kts 337°
2026-05-05 23:03 42.15246 15.94607 31281 ft 439 kts 337°
2026-05-05 23:04 42.18157 15.93356 31635 ft 439 kts 337°
2026-05-05 23:04 42.21068 15.92100 31962 ft 439 kts 337°
2026-05-05 23:04 42.23973 15.90843 32338 ft 438 kts 337°
2026-05-05 23:04 42.26867 15.89589 32714 ft 436 kts 337°
2026-05-05 23:05 42.29755 15.88337 33077 ft 436 kts 337°
2026-05-05 23:05 42.32643 15.87083 33432 ft 435 kts 337°
2026-05-05 23:05 42.35519 15.85835 33858 ft 433 kts 336°
2026-05-05 23:05 42.38375 15.84595 34271 ft 430 kts 336°
2026-05-05 23:06 42.41220 15.83358 34559 ft 430 kts 337°
2026-05-05 23:06 42.44068 15.82116 34760 ft 431 kts 337°
2026-05-05 23:06 42.46928 15.80868 34993 ft 432 kts 337°
2026-05-05 23:06 42.49789 15.79618 35217 ft 433 kts 337°
2026-05-05 23:07 42.52658 15.78364 35428 ft 434 kts 337°
2026-05-05 23:07 42.55533 15.77108 35700 ft 434 kts 337°
2026-05-05 23:07 42.58402 15.75853 35971 ft 433 kts 337°
2026-05-05 23:07 42.61266 15.74600 36226 ft 433 kts 337°
2026-05-05 23:08 42.64133 15.73344 36469 ft 433 kts 337°
2026-05-05 23:08 42.67002 15.72084 36700 ft 433 kts 337°
2026-05-05 23:08 42.69866 15.70826 36956 ft 433 kts 337°
2026-05-05 23:08 42.72729 15.69568 37202 ft 432 kts 337°
2026-05-05 23:09 42.75589 15.68310 37442 ft 432 kts 337°
2026-05-05 23:09 42.78450 15.67049 37677 ft 432 kts 337°
2026-05-05 23:09 42.81307 15.65790 37936 ft 431 kts 338°
2026-05-05 23:09 42.84163 15.64530 38163 ft 431 kts 338°
2026-05-05 23:10 42.87013 15.63271 38342 ft 432 kts 337°
2026-05-05 23:10 42.89885 15.61999 38409 ft 435 kts 337°
2026-05-05 23:10 42.92766 15.60723 38619 ft 435 kts 337°
2026-05-05 23:10 42.95639 15.59451 38878 ft 433 kts 338°
2026-05-05 23:11 42.98465 15.58198 39049 ft 433 kts 338°
2026-05-05 23:11 43.01332 15.56926 39164 ft 434 kts 338°
2026-05-05 23:11 43.04241 15.55632 39288 ft 434 kts 338°
2026-05-05 23:11 43.07114 15.54354 39446 ft 434 kts 338°
2026-05-05 23:12 43.09950 15.53092 39591 ft 434 kts 337°
2026-05-05 23:12 43.12863 15.51793 39710 ft 435 kts 337°
2026-05-05 23:12 43.15741 15.50509 39837 ft 435 kts 337°
2026-05-05 23:12 43.18620 15.49223 39983 ft 435 kts 337°
2026-05-05 23:13 43.24365 15.46652 40027 ft 439 kts 337°
2026-05-05 23:13 43.30195 15.44041 40013 ft 437 kts 337°
2026-05-05 23:14 43.35924 15.41470 40030 ft 435 kts 337°
2026-05-05 23:14 43.41677 15.38882 40024 ft 434 kts 337°
2026-05-05 23:15 43.47412 15.36297 40037 ft 433 kts 337°
2026-05-05 23:15 43.53133 15.33712 40024 ft 432 kts 337°
2026-05-05 23:16 43.58847 15.31125 40035 ft 432 kts 337°
2026-05-05 23:16 43.64560 15.28534 40042 ft 432 kts 337°
2026-05-05 23:17 43.70282 15.25932 40025 ft 433 kts 337°
2026-05-05 23:17 43.76016 15.23321 40031 ft 434 kts 337°
2026-05-05 23:18 43.81768 15.20696 40034 ft 436 kts 337°
2026-05-05 23:18 43.87541 15.18056 40042 ft 438 kts 337°
2026-05-05 23:19 43.93333 15.15402 40038 ft 439 kts 337°
2026-05-05 23:19 43.99140 15.12736 40053 ft 440 kts 337°
2026-05-05 23:20 44.04962 15.10059 40047 ft 441 kts 337°
2026-05-05 23:20 44.10790 15.07372 40039 ft 441 kts 337°
2026-05-05 23:21 44.16610 15.04684 40036 ft 440 kts 337°
2026-05-05 23:21 44.22423 15.01994 40038 ft 440 kts 337°
2026-05-05 23:22 44.28233 14.99298 40032 ft 440 kts 336°
2026-05-05 23:22 44.34039 14.96599 40028 ft 440 kts 336°
2026-05-05 23:23 44.39840 14.93897 40030 ft 439 kts 336°
2026-05-05 23:23 44.45639 14.91190 40031 ft 440 kts 336°
2026-05-05 23:24 44.51438 14.88477 40026 ft 439 kts 336°
2026-05-05 23:24 44.57236 14.85759 40026 ft 439 kts 336°
2026-05-05 23:25 44.63022 14.83041 40038 ft 439 kts 336°
2026-05-05 23:25 44.68814 14.80315 40027 ft 439 kts 336°
2026-05-05 23:26 44.74712 14.78035 40023 ft 445 kts 347°
2026-05-05 23:26 44.80829 14.76999 40019 ft 446 kts 348°
2026-05-05 23:27 44.87004 14.76036 40028 ft 446 kts 348°
2026-05-05 23:27 44.93166 14.75013 40022 ft 446 kts 347°
2026-05-05 23:28 44.99319 14.73946 40028 ft 445 kts 347°
2026-05-05 23:28 45.04430 14.73043 40017 ft 446 kts 348°
2026-05-05 23:29 45.10584 14.71953 40043 ft 446 kts 347°
2026-05-05 23:29 45.16748 14.70860 40029 ft 447 kts 347°
2026-05-05 23:30 45.22920 14.69764 40037 ft 448 kts 347°
2026-05-05 23:30 45.29116 14.68662 40025 ft 449 kts 347°
2026-05-05 23:31 45.35321 14.67556 40032 ft 450 kts 347°
2026-05-05 23:31 45.41558 14.66443 40007 ft 450 kts 347°
2026-05-05 23:32 45.47718 14.65340 40025 ft 449 kts 348°
2026-05-05 23:32 45.53919 14.64228 40018 ft 450 kts 348°
2026-05-05 23:33 45.60135 14.63110 40013 ft 450 kts 348°
2026-05-05 23:33 45.66350 14.61989 40024 ft 451 kts 348°
2026-05-05 23:34 45.72582 14.60864 40002 ft 452 kts 348°
2026-05-05 23:34 45.78835 14.59731 40006 ft 453 kts 348°
2026-05-05 23:35 45.85101 14.58595 39991 ft 454 kts 347°
2026-05-05 23:35 45.91374 14.57454 39992 ft 455 kts 348°
2026-05-05 23:36 45.97659 14.56309 39993 ft 455 kts 348°
2026-05-05 23:36 46.03950 14.55160 39991 ft 456 kts 348°
2026-05-05 23:37 46.10240 14.54008 39989 ft 455 kts 348°
2026-05-05 23:37 46.16526 14.52855 39988 ft 455 kts 348°
2026-05-05 23:38 46.22811 14.51699 39999 ft 455 kts 348°
2026-05-05 23:38 46.29102 14.50538 40001 ft 457 kts 348°
2026-05-05 23:39 46.35416 14.49370 40000 ft 458 kts 348°
2026-05-05 23:39 46.41750 14.48197 39956 ft 460 kts 348°
2026-05-05 23:40 46.48105 14.47017 39936 ft 460 kts 349°
2026-05-05 23:40 46.54463 14.45834 39945 ft 461 kts 349°
2026-05-05 23:41 46.60835 14.44647 39934 ft 462 kts 349°
2026-05-05 23:41 46.67164 14.43463 39941 ft 462 kts 349°
2026-05-05 23:42 46.73547 14.42266 39946 ft 463 kts 349°
2026-05-05 23:42 46.79943 14.41064 39941 ft 464 kts 349°
2026-05-05 23:43 46.86345 14.39858 39955 ft 465 kts 349°
2026-05-05 23:43 46.92762 14.38647 39954 ft 465 kts 349°
2026-05-05 23:44 46.99195 14.37429 39951 ft 467 kts 349°
2026-05-05 23:44 47.05643 14.36206 39941 ft 468 kts 349°
2026-05-05 23:45 47.12095 14.34979 39955 ft 468 kts 349°
2026-05-05 23:45 47.18558 14.33748 39941 ft 468 kts 349°
2026-05-05 23:46 47.25020 14.32513 39953 ft 469 kts 349°
2026-05-05 23:46 47.31495 14.31272 39925 ft 470 kts 349°
2026-05-05 23:47 47.37942 14.30033 39920 ft 471 kts 349°
2026-05-05 23:47 47.44442 14.28782 39924 ft 471 kts 349°
2026-05-05 23:48 47.50950 14.27526 39917 ft 472 kts 349°
2026-05-05 23:48 47.57473 14.26264 39909 ft 473 kts 349°
2026-05-05 23:49 47.64010 14.24996 39907 ft 474 kts 349°
2026-05-05 23:49 47.70561 14.23721 39902 ft 475 kts 349°
2026-05-05 23:50 47.77113 14.22444 39898 ft 476 kts 349°
2026-05-05 23:50 47.83689 14.21159 39895 ft 477 kts 349°
2026-05-05 23:51 47.90281 14.19867 39883 ft 478 kts 349°
2026-05-05 23:51 47.96872 14.18573 39877 ft 477 kts 349°
2026-05-05 23:52 48.03455 14.17276 39864 ft 477 kts 349°
2026-05-05 23:52 48.10041 14.15976 39868 ft 478 kts 349°
2026-05-05 23:53 48.16631 14.14671 39861 ft 478 kts 349°
2026-05-05 23:53 48.23220 14.13363 39860 ft 478 kts 349°
2026-05-05 23:54 48.29812 14.12051 39857 ft 478 kts 349°
2026-05-05 23:54 48.36403 14.10736 39863 ft 478 kts 349°
2026-05-05 23:55 48.42992 14.09418 39865 ft 478 kts 349°
2026-05-05 23:55 48.49584 14.08096 39876 ft 478 kts 349°
2026-05-05 23:56 48.56176 14.06770 39870 ft 478 kts 349°
2026-05-05 23:56 48.62759 14.05443 39873 ft 477 kts 349°
2026-05-05 23:57 48.69298 14.04121 39886 ft 477 kts 349°
2026-05-05 23:57 48.75882 14.02786 39866 ft 477 kts 349°
2026-05-05 23:58 48.82466 14.01448 39869 ft 477 kts 349°
2026-05-05 23:58 48.89052 14.00106 39852 ft 478 kts 349°
2026-05-05 23:59 48.95637 13.98760 39861 ft 477 kts 350°
2026-05-05 23:59 49.02222 13.97411 39853 ft 478 kts 350°
2026-05-06 00:00 49.08809 13.96058 39846 ft 477 kts 349°
2026-05-06 00:00 49.15391 13.94703 39853 ft 477 kts 349°
2026-05-06 00:01 49.21977 13.93343 39834 ft 478 kts 349°
2026-05-06 00:01 49.28557 13.91980 39836 ft 478 kts 349°
2026-05-06 00:02 49.35141 13.90613 39843 ft 478 kts 349°
2026-05-06 00:02 49.41733 13.89240 39832 ft 478 kts 349°
2026-05-06 00:03 49.48291 13.87871 39830 ft 478 kts 349°
2026-05-06 00:03 49.54890 13.86490 39823 ft 479 kts 349°
2026-05-06 00:04 49.61490 13.85105 39828 ft 479 kts 349°
2026-05-06 00:04 49.68090 13.83716 39825 ft 479 kts 349°
2026-05-06 00:05 49.77989 13.81625 39808 ft 478 kts 349°
2026-05-06 00:06 49.84583 13.80228 39814 ft 478 kts 349°
2026-05-06 00:06 49.91171 13.78828 39807 ft 478 kts 349°
2026-05-06 00:07 49.97756 13.77425 39801 ft 477 kts 349°
2026-05-06 00:07 50.04344 13.76017 39792 ft 478 kts 349°
2026-05-06 00:08 50.10929 13.74606 39796 ft 478 kts 349°
2026-05-06 00:08 50.17510 13.73192 39791 ft 478 kts 349°
2026-05-06 00:09 50.24098 13.71772 39798 ft 478 kts 349°
2026-05-06 00:09 50.30699 13.70346 39791 ft 479 kts 349°
2026-05-06 00:10 50.37302 13.68915 39792 ft 479 kts 349°
2026-05-06 00:10 50.43905 13.67480 39789 ft 479 kts 349°
2026-05-06 00:11 50.50515 13.66040 39787 ft 480 kts 349°
2026-05-06 00:11 50.57127 13.64596 39792 ft 480 kts 349°
2026-05-06 00:12 50.63745 13.63145 39788 ft 481 kts 349°
2026-05-06 00:12 50.70371 13.61689 39778 ft 481 kts 349°
2026-05-06 00:13 50.77002 13.60228 39779 ft 481 kts 349°
2026-05-06 00:13 50.83633 13.58762 39777 ft 481 kts 349°
2026-05-06 00:14 50.90216 13.57303 39774 ft 481 kts 349°
2026-05-06 00:14 50.96890 13.55820 39776 ft 481 kts 349°
2026-05-06 00:15 51.03469 13.54353 39782 ft 481 kts 348°
2026-05-06 00:15 51.10092 13.52872 39776 ft 481 kts 348°
2026-05-06 00:16 51.16714 13.51387 39773 ft 480 kts 348°
2026-05-06 00:16 51.23330 13.49900 39770 ft 480 kts 348°
2026-05-06 00:17 51.29943 13.48408 39774 ft 480 kts 348°
2026-05-06 00:17 51.36552 13.46913 39776 ft 480 kts 348°
2026-05-06 00:18 51.43161 13.45414 39771 ft 479 kts 348°
2026-05-06 00:18 51.48648 13.44166 39772 ft 479 kts 348°
2026-05-06 00:19 51.55250 13.42661 39791 ft 479 kts 348°
2026-05-06 00:19 51.61845 13.41152 39790 ft 479 kts 348°
2026-05-06 00:20 51.68438 13.39640 39795 ft 478 kts 348°
2026-05-06 00:20 51.75022 13.38125 39799 ft 478 kts 348°
2026-05-06 00:21 51.81598 13.36608 39802 ft 477 kts 348°
2026-05-06 00:21 51.88163 13.35088 39792 ft 476 kts 348°
2026-05-06 00:22 51.94715 13.33568 39795 ft 475 kts 348°
2026-05-06 00:22 52.01262 13.32044 39817 ft 475 kts 348°
2026-05-06 00:23 52.07795 13.30518 39802 ft 474 kts 348°
2026-05-06 00:23 52.14328 13.28988 39809 ft 474 kts 348°
2026-05-06 00:24 52.20853 13.27455 39818 ft 474 kts 348°
2026-05-06 00:24 52.27376 13.25918 39829 ft 473 kts 348°
2026-05-06 00:25 52.33893 13.24378 39823 ft 473 kts 348°
2026-05-06 00:25 52.40412 13.22834 39823 ft 473 kts 348°
2026-05-06 00:26 52.46918 13.21287 39823 ft 472 kts 348°
2026-05-06 00:26 52.53421 13.19737 39836 ft 472 kts 348°
2026-05-06 00:27 52.59873 13.18194 39819 ft 471 kts 348°
2026-05-06 00:27 52.66349 13.16641 39820 ft 470 kts 348°
2026-05-06 00:28 52.72815 13.15086 39846 ft 469 kts 348°
2026-05-06 00:28 52.79269 13.13528 39832 ft 469 kts 348°
2026-05-06 00:29 52.85721 13.11967 39830 ft 468 kts 348°
2026-05-06 00:29 52.92166 13.10402 39835 ft 468 kts 348°
2026-05-06 00:30 52.98602 13.08835 39835 ft 468 kts 348°
2026-05-06 00:30 53.05043 13.07262 39847 ft 468 kts 348°
2026-05-06 00:31 53.11486 13.05684 39842 ft 468 kts 348°
2026-05-06 00:31 53.17931 13.04101 39848 ft 468 kts 348°
2026-05-06 00:32 53.24378 13.02512 39844 ft 468 kts 348°
2026-05-06 00:32 53.30822 13.00919 39858 ft 468 kts 348°
2026-05-06 00:33 53.37266 12.99322 39858 ft 468 kts 348°
2026-05-06 00:33 53.43715 12.97718 39870 ft 468 kts 348°
2026-05-06 00:34 53.50121 12.96120 39863 ft 469 kts 348°
2026-05-06 00:34 53.56575 12.94505 39866 ft 469 kts 348°
2026-05-06 00:35 53.63030 12.92885 39863 ft 469 kts 347°
2026-05-06 00:35 53.69485 12.91260 39869 ft 469 kts 347°
2026-05-06 00:36 53.75938 12.89631 39870 ft 469 kts 347°
2026-05-06 00:36 53.82388 12.87996 39884 ft 469 kts 347°
2026-05-06 00:37 53.88836 12.86358 39875 ft 468 kts 347°
2026-05-06 00:37 53.95278 12.84716 39875 ft 468 kts 347°
2026-05-06 00:38 54.01716 12.83070 39876 ft 467 kts 347°
2026-05-06 00:38 54.08144 12.81421 39897 ft 467 kts 347°
2026-05-06 00:39 54.14563 12.79769 39882 ft 466 kts 347°
2026-05-06 00:39 54.20974 12.78114 39883 ft 466 kts 347°
2026-05-06 00:40 54.27380 12.76456 39882 ft 465 kts 347°
2026-05-06 00:40 54.33779 12.74793 39900 ft 465 kts 347°
2026-05-06 00:41 54.40133 12.73137 39890 ft 465 kts 347°
2026-05-06 00:41 54.46530 12.71465 39898 ft 465 kts 347°
2026-05-06 00:42 54.52932 12.69786 39903 ft 465 kts 347°
2026-05-06 00:42 54.59335 12.68102 39901 ft 466 kts 347°
2026-05-06 00:43 54.65747 12.66409 39897 ft 467 kts 347°
2026-05-06 00:43 54.72170 12.64709 39899 ft 467 kts 347°
2026-05-06 00:44 54.78602 12.63001 39900 ft 468 kts 347°
2026-05-06 00:44 54.85035 12.61287 39908 ft 468 kts 347°
2026-05-06 00:45 54.91475 12.59566 39928 ft 469 kts 346°
2026-05-06 00:45 54.97928 12.57835 39916 ft 469 kts 346°
2026-05-06 00:46 55.04381 12.56099 39911 ft 469 kts 346°
2026-05-06 00:46 55.10832 12.54358 39915 ft 469 kts 346°
2026-05-06 00:47 55.17282 12.52612 39924 ft 469 kts 346°
2026-05-06 00:47 55.23728 12.50861 39914 ft 469 kts 346°
2026-05-06 00:48 55.30170 12.49105 39919 ft 468 kts 346°
2026-05-06 00:48 55.36607 12.47344 39925 ft 468 kts 346°
2026-05-06 00:49 55.43040 12.45579 39926 ft 468 kts 346°
2026-05-06 00:49 55.49470 12.43809 39927 ft 467 kts 346°
2026-05-06 00:50 55.55894 12.42035 39937 ft 467 kts 346°
2026-05-06 00:50 55.62315 12.40255 39940 ft 467 kts 346°
2026-05-06 00:51 55.68691 12.38482 39966 ft 467 kts 346°
2026-05-06 00:51 55.75115 12.36690 39943 ft 467 kts 346°
2026-05-06 00:52 55.81540 12.34892 39936 ft 467 kts 346°
2026-05-06 00:52 55.87958 12.33090 39938 ft 467 kts 346°
2026-05-06 00:53 55.94375 12.31282 39938 ft 467 kts 346°
2026-05-06 00:53 56.00794 12.29467 39950 ft 467 kts 346°
2026-05-06 00:54 56.07211 12.27646 39945 ft 467 kts 346°
2026-05-06 00:54 56.13629 12.25819 39946 ft 467 kts 346°
2026-05-06 00:55 56.20044 12.23988 39945 ft 467 kts 346°
2026-05-06 00:55 56.26455 12.22150 39961 ft 467 kts 345°
2026-05-06 00:56 56.32864 12.20308 39953 ft 466 kts 345°
2026-05-06 00:56 56.39228 12.18472 39949 ft 466 kts 345°
2026-05-06 00:57 56.45624 12.16620 39961 ft 465 kts 345°
2026-05-06 00:57 56.52016 12.14763 39975 ft 465 kts 345°
2026-05-06 00:58 56.58406 12.12901 39965 ft 465 kts 345°
2026-05-06 00:58 56.64786 12.11035 39953 ft 464 kts 345°
2026-05-06 00:59 56.71156 12.09166 39956 ft 463 kts 345°
2026-05-06 00:59 56.77518 12.07292 39955 ft 463 kts 345°
2026-05-06 01:00 56.83872 12.05415 39962 ft 463 kts 345°
2026-05-06 01:00 56.90227 12.03530 39965 ft 463 kts 345°
2026-05-06 01:01 56.96585 12.01638 39966 ft 463 kts 345°
2026-05-06 01:01 57.02944 11.99739 39960 ft 463 kts 345°
2026-05-06 01:02 57.09303 11.97834 39984 ft 463 kts 345°
2026-05-06 01:02 57.15673 11.95918 39968 ft 464 kts 345°
2026-05-06 01:03 57.21357 11.94203 39966 ft 464 kts 345°
2026-05-06 01:03 57.27734 11.92273 39967 ft 465 kts 345°
2026-05-06 01:04 57.34112 11.90337 39962 ft 465 kts 345°
2026-05-06 01:04 57.40496 11.88391 39970 ft 465 kts 345°
2026-05-06 01:05 57.46879 11.86439 39966 ft 465 kts 345°
2026-05-06 01:05 57.53254 11.84482 39966 ft 464 kts 345°
2026-05-06 01:06 57.59622 11.82521 39966 ft 464 kts 345°
2026-05-06 01:06 57.65987 11.80553 40001 ft 463 kts 345°
2026-05-06 01:07 57.72349 11.78579 39974 ft 463 kts 345°
2026-05-06 01:07 57.78707 11.76600 39966 ft 463 kts 345°
2026-05-06 01:08 57.85059 11.74615 39971 ft 463 kts 345°
2026-05-06 01:08 57.91409 11.72623 39965 ft 463 kts 345°
2026-05-06 01:09 57.97760 11.70624 39966 ft 463 kts 345°
2026-05-06 01:09 58.04110 11.68619 39965 ft 463 kts 345°
2026-05-06 01:10 58.10464 11.66604 39926 ft 464 kts 345°
2026-05-06 01:10 58.13673 11.65580 39390 ft 470 kts 344°
2026-05-06 01:10 58.16880 11.64562 38890 ft 466 kts 344°
2026-05-06 01:10 58.20085 11.63553 38148 ft 467 kts 344°
2026-05-06 01:11 58.23282 11.62568 37466 ft 464 kts 343°
2026-05-06 01:11 58.26467 11.61595 36799 ft 463 kts 343°
2026-05-06 01:11 58.29640 11.60625 36151 ft 461 kts 343°
2026-05-06 01:11 58.32805 11.59652 35470 ft 461 kts 342°
2026-05-06 01:12 58.35972 11.58673 34753 ft 462 kts 342°
2026-05-06 01:12 58.39146 11.57687 34006 ft 463 kts 341°
2026-05-06 01:12 58.42289 11.56707 33124 ft 464 kts 341°
2026-05-06 01:12 58.45475 11.55713 32303 ft 464 kts 341°
2026-05-06 01:13 58.48662 11.54719 31460 ft 464 kts 342°
2026-05-06 01:13 58.51853 11.53722 30657 ft 465 kts 342°
2026-05-06 01:13 58.55048 11.52722 29686 ft 466 kts 341°
2026-05-06 01:13 58.58254 11.51715 28623 ft 467 kts 342°
2026-05-06 01:14 58.64660 11.49702 26551 ft 466 kts 342°
2026-05-06 01:14 58.67868 11.48690 25514 ft 467 kts 342°
2026-05-06 01:14 58.71048 11.47690 24772 ft 460 kts 342°
2026-05-06 01:15 58.74183 11.46703 24015 ft 454 kts 342°
2026-05-06 01:15 58.77274 11.45725 23171 ft 448 kts 342°
2026-05-06 01:15 58.80337 11.44751 22321 ft 442 kts 342°
2026-05-06 01:15 58.83349 11.43791 21585 ft 435 kts 342°
2026-05-06 01:16 58.86314 11.42843 20794 ft 429 kts 342°
2026-05-06 01:16 58.89240 11.41905 20039 ft 423 kts 343°
2026-05-06 01:16 58.92125 11.40978 19306 ft 418 kts 343°
2026-05-06 01:16 58.94973 11.40060 18581 ft 412 kts 343°
2026-05-06 01:17 58.97783 11.39153 17785 ft 407 kts 343°
2026-05-06 01:17 59.00562 11.38255 17049 ft 402 kts 344°
2026-05-06 01:17 59.03250 11.37392 16919 ft 382 kts 343°
2026-05-06 01:17 59.05816 11.36567 16742 ft 366 kts 343°
2026-05-06 01:18 59.08273 11.35776 16626 ft 350 kts 343°
2026-05-06 01:18 59.10629 11.35012 16523 ft 336 kts 342°
2026-05-06 01:18 59.12865 11.34096 16379 ft 321 kts 339°
2026-05-06 01:18 59.14997 11.33094 16237 ft 310 kts 338°
2026-05-06 01:19 59.17059 11.32119 16104 ft 300 kts 338°
2026-05-06 01:19 59.19059 11.31186 15862 ft 294 kts 339°
2026-05-06 01:19 59.21056 11.30366 15563 ft 292 kts 341°
2026-05-06 01:19 59.23047 11.29600 15237 ft 291 kts 341°
2026-05-06 01:20 59.25028 11.28847 14907 ft 289 kts 342°
2026-05-06 01:20 59.26973 11.28106 14594 ft 287 kts 342°
2026-05-06 01:20 59.28954 11.27347 14273 ft 286 kts 342°
2026-05-06 01:20 59.30894 11.26598 13961 ft 284 kts 342°
2026-05-06 01:21 59.32810 11.25855 13632 ft 283 kts 343°
2026-05-06 01:21 59.34762 11.25096 13274 ft 282 kts 343°
2026-05-06 01:21 59.36651 11.24361 12973 ft 279 kts 343°
2026-05-06 01:21 59.38545 11.23621 12649 ft 277 kts 343°
2026-05-06 01:22 59.40431 11.22883 12370 ft 274 kts 343°
2026-05-06 01:22 59.42296 11.22152 12050 ft 273 kts 344°
2026-05-06 01:22 59.44151 11.21424 11738 ft 271 kts 344°
2026-05-06 01:22 59.45994 11.20699 11428 ft 270 kts 344°
2026-05-06 01:23 59.47827 11.19977 11126 ft 267 kts 344°
2026-05-06 01:23 59.49643 11.19262 10828 ft 266 kts 345°
2026-05-06 01:23 59.51450 11.18549 10541 ft 264 kts 345°
2026-05-06 01:23 59.53247 11.17839 10246 ft 263 kts 345°
2026-05-06 01:24 59.55033 11.17133 10131 ft 260 kts 345°
2026-05-06 01:24 59.56811 11.16429 9977 ft 262 kts 345°
2026-05-06 01:24 59.58624 11.15707 9667 ft 268 kts 345°
2026-05-06 01:24 59.60448 11.14983 9358 ft 266 kts 345°
2026-05-06 01:25 59.62251 11.14268 9092 ft 263 kts 345°
2026-05-06 01:25 59.64042 11.13557 8794 ft 262 kts 345°
2026-05-06 01:25 59.65818 11.12851 8512 ft 259 kts 345°
2026-05-06 01:25 59.67582 11.12148 8227 ft 258 kts 345°
2026-05-06 01:26 59.69334 11.11450 7951 ft 256 kts 345°
2026-05-06 01:26 59.71072 11.10756 7687 ft 254 kts 346°
2026-05-06 01:26 59.72802 11.10064 7413 ft 253 kts 346°
2026-05-06 01:26 59.74523 11.09375 7136 ft 252 kts 346°
2026-05-06 01:27 59.76235 11.08690 6872 ft 251 kts 346°
2026-05-06 01:27 59.77943 11.08005 6605 ft 250 kts 346°
2026-05-06 01:27 59.79645 11.07321 6330 ft 249 kts 346°
2026-05-06 01:27 59.81342 11.06639 6046 ft 248 kts 346°
2026-05-06 01:28 59.83036 11.05957 5763 ft 248 kts 346°
2026-05-06 01:28 59.84708 11.05284 5631 ft 242 kts 346°
2026-05-06 01:28 59.86332 11.04630 5506 ft 235 kts 346°
2026-05-06 01:28 59.87906 11.03995 5407 ft 227 kts 347°
2026-05-06 01:29 59.89430 11.03380 5295 ft 219 kts 347°
2026-05-06 01:29 59.90901 11.02785 5207 ft 212 kts 347°
2026-05-06 01:29 59.92324 11.02210 5122 ft 209 kts 347°
2026-05-06 01:29 59.93756 11.01628 4980 ft 212 kts 347°
2026-05-06 01:30 59.95199 11.01044 4783 ft 211 kts 347°
2026-05-06 01:30 59.96632 11.00462 4552 ft 209 kts 347°
2026-05-06 01:30 59.98035 10.99902 4347 ft 207 kts 350°
2026-05-06 01:30 59.99466 11.00195 4131 ft 208 kts 22°
2026-05-06 01:31 60.00831 11.01224 4066 ft 211 kts 14°
2026-05-06 01:31 60.02225 11.01944 3960 ft 207 kts 14°
2026-05-06 01:31 60.03606 11.02695 3679 ft 204 kts 15°
2026-05-06 01:31 60.04958 11.03470 3394 ft 200 kts 15°
2026-05-06 01:32 60.06277 11.04234 3132 ft 195 kts 15°
2026-05-06 01:32 60.07564 11.04981 2861 ft 190 kts 15°
2026-05-06 01:32 60.08817 11.05708 2577 ft 183 kts 15°
2026-05-06 01:32 60.10003 11.06395 2330 ft 170 kts 14°
2026-05-06 01:33 60.11098 11.07029 2098 ft 157 kts 14°
2026-05-06 01:33 60.12089 11.07603 1876 ft 142 kts 14°
2026-05-06 01:33 60.13009 11.08135 1682 ft 137 kts 14°
2026-05-06 01:33 60.13939 11.08677 1480 ft 141 kts 15°
2026-05-06 01:34 60.14880 11.09216 1267 ft 140 kts 15°
2026-05-06 01:34 60.15808 11.09759 1074 ft 139 kts 15°
2026-05-06 01:34 60.16730 11.10293 881 ft 137 kts 15°
2026-05-06 01:34 60.17639 11.10813 712 ft 134 kts 15°
2026-05-06 01:35 60.18472 11.11294 683 ft 108 kts 16°
2026-05-06 01:35 60.19023 11.11612 683 ft 52 kts 16°
2026-05-06 01:35 60.19276 11.11693 681 ft 27 kts 354°
2026-05-06 01:35 60.19375 11.11537 680 ft 19 kts 285°
2026-05-06 01:36 60.19410 11.11298 679 ft 17 kts 286°
2026-05-06 01:36 60.19443 11.11071 682 ft 17 kts 286°
2026-05-06 01:36 60.19473 11.10852 682 ft 16 kts 285°
2026-05-06 01:36 60.19504 11.10641 682 ft 15 kts 286°
2026-05-06 01:37 60.19532 11.10441 683 ft 13 kts 285°
2026-05-06 01:37 60.19520 11.10302 681 ft 9 kts 238°
2026-05-06 01:37 60.19471 11.10251 684 ft 7 kts 196°
2026-05-06 01:37 60.19450 11.10238 684 ft 1 kts 196°
2026-05-06 01:38 60.19448 11.10237 684 ft 0 kts 196°